ATLAS 5 CENTAUR DEB, 43981

Orbit data source: Space-Track

ATLAS 5 CENTAUR DEB, 43981 is space debris in HEO originally from a launch on Wed, 17 Sep 2014 UTC launched from the Air Force Eastern Test Range (AFETR). Debris objects in space refer to the collection of defunct objects orbiting the Earth. Examples of debris include non-operational satellites, rocket bodies, and fragments generated from explosions, collisions, or faulty payload assembly.

Loading next visibility...
Identifier
43981, 2014-055AL
Orbit
HEO
Country
Flag of USUS
Related business
Flag of USUnited Launch Alliance/Lockheed Martin (US)
Manufacturer
Unknown
Mission
Spacecraft
Bus & Motor
Unknown
Mass
Unknown
Launch date (UTC)
2014-09-17 (12 years ago)
Launch vehicle
Unknown
Launch site
Air Force Eastern Test Range (AFETR)
Object type
Payload
Rocket body
Debris
Shape & HBR
Unknown shape, 1.1 m
Radar Cross Section
Medium (>0.1 m² and <1 m²)

Expand to show TLE details & history
Last TLE update: 2 days ago

TLE from 2 days ago
0 ATLAS 5 CENTAUR DEB
1 43981U 14055AL  26171.08475663 -.00000063  00000-0  00000+0 0  9995
2 43981  20.0275 138.1543 5110483 168.3407 210.5989  1.78785509 50839
Epoch: 2026-06-20T02:02Z
TLE epoch observation values (Epoch: 2026-06-20T02:02:02.972Z)
Latitude
-0.00002°
Longitude
-160.69383°
Altitude
36,031.619 km
Speed
2.213 km/s
True Right ascension
09h 12m 29s
True Declination
0° 00' 00"
Sunlit
Object was in daylight at epoch
Visualization orbit readout
Latitude
Unknown
Longitude
Unknown
Altitude
Unknown
Speed
Unknown
Apparent Right ascension
Unknown
Apparent Declination
Unknown
Sunlit
N/A
Visualization observer readout
Local Sidereal Time
21:43:00
Azimuth
Unknown
Elevation
Unknown
Doppler factor
Unknown
Orbital elements
Apogee altitude
36,955.229 km
Perigee altitude
7,643.866 km
Semi-major axis
28,677.684 km
Eccentricity
0.51105
Inclination
20.0275°
RAAN
138.1543°
Arg. of periapsis
168.3407°
True anomaly
191.68491°
Mean anomaly
210.5989°
Eccentric anomaly
200.39486°
Mean motion
0.44692 °/min
Orbital period
805.52 mins
BSTAR
0
Loading maneuver chart data...
Computing Atmospheric mass density...

Documentation

Showing up to 5 results
|